When you browse on this site, cookies collect data to enhance your experience and personalize the content and advertising you see.
Visit our Privacy Policy to learn more. By continuing to use the site, you agree to this use of cookies and data.

Hourly Weather Cauquenes

Today, 13 August, Thursday

Time Temperature Precipitation Wind Pressure Humidity
00:00 +6°C° 0 mm 1 mps 751 mmHg 91%
01:00 +6°C° 0 mm 1 mps 751 mmHg 90%
02:00 +5°C° 0 mm 0 mps 751 mmHg 90%
03:00 +5°C° 0 mm 0 mps 751 mmHg 90%
04:00 +5°C° 0 mm 0 mps 750 mmHg 89%
05:00 +5°C° 0 mm 0 mps 750 mmHg 89%
06:00 +5°C° 0 mm 0 mps 751 mmHg 89%
07:00 +5°C° 0 mm 0 mps 751 mmHg 89%
08:00 +7°C° 0 mm 0 mps 751 mmHg 81%
09:00 +9°C° 0 mm 0 mps 751 mmHg 74%
10:00 +12°C° 0 mm 1 mps 751 mmHg 67%
11:00 +13°C° 0 mm 1 mps 750 mmHg 64%
12:00 +13°C° 0 mm 1 mps 749 mmHg 62%
13:00 +14°C° 0 mm 2 mps 749 mmHg 59%
14:00 +13°C° 0 mm 2 mps 748 mmHg 63%
15:00 +13°C° 0 mm 2 mps 748 mmHg 66%
16:00 +12°C° 0 mm 2 mps 748 mmHg 70%
17:00 +10°C° 0 mm 2 mps 748 mmHg 76%
18:00 +8°C° 0 mm 2 mps 749 mmHg 82%
19:00 +8°C° 0 mm 1 mps 749 mmHg 88%
20:00 +7°C° 0 mm 2 mps 749 mmHg 88%
21:00 +7°C° 0 mm 2 mps 749 mmHg 89%
22:00 +7°C° 0 mm 2 mps 749 mmHg 90%
23:00 +7°C° 0.2 mm 2 mps 749 mmHg 91%

Tomorrow, 14 August, Friday

Time Temperature Precipitation Wind Pressure Humidity
00:00 +8°C° 0.2 mm 2 mps 749 mmHg 92%
01:00 +8°C° 0.2 mm 2 mps 749 mmHg 93%
02:00 +7°C° 0.4 mm 2 mps 749 mmHg 93%
03:00 +8°C° 0.4 mm 1 mps 749 mmHg 94%
04:00 +7°C° 0.4 mm 1 mps 749 mmHg 94%
05:00 +7°C° 0 mm 1 mps 750 mmHg 94%
06:00 +7°C° 0 mm 1 mps 751 mmHg 94%
07:00 +6°C° 0 mm 1 mps 751 mmHg 94%
08:00 +8°C° 0 mm 1 mps 752 mmHg 89%
09:00 +10°C° 0 mm 1 mps 752 mmHg 84%
10:00 +10°C° 0 mm 2 mps 753 mmHg 80%
11:00 +12°C° 0 mm 2 mps 752 mmHg 76%
12:00 +12°C° 0 mm 2 mps 752 mmHg 73%
13:00 +13°C° 0 mm 2 mps 752 mmHg 69%
14:00 +13°C° 0 mm 2 mps 752 mmHg 68%
15:00 +11°C° 0 mm 3 mps 752 mmHg 66%
16:00 +11°C° 0 mm 3 mps 752 mmHg 65%
17:00 +9°C° 0 mm 2 mps 753 mmHg 72%
18:00 +7°C° 0 mm 2 mps 753 mmHg 79%
19:00 +6°C° 0 mm 1 mps 753 mmHg 87%
20:00 +5°C° 0 mm 2 mps 753 mmHg 87%
21:00 +4°C° 0 mm 2 mps 753 mmHg 87%
22:00 +3°C° 0 mm 2 mps 753 mmHg 88%
23:00 +3°C° 0 mm 2 mps 753 mmHg 89%

Day after tomorrow, 15 August, Saturday

Time Temperature Precipitation Wind Pressure Humidity
00:00 +3°C° 0 mm 2 mps 753 mmHg 90%
01:00 +2°C° 0 mm 2 mps 753 mmHg 91%
02:00 +3°C° 0 mm 1 mps 753 mmHg 90%
03:00 +3°C° 0 mm 1 mps 753 mmHg 90%
04:00 +3°C° 0 mm 1 mps 753 mmHg 90%
05:00 +3°C° 0 mm 1 mps 753 mmHg 89%
06:00 +4°C° 0 mm 1 mps 753 mmHg 88%
07:00 +4°C° 0 mm 1 mps 754 mmHg 88%
08:00 +3°C° 0 mm 3 mps 754 mmHg 81%
09:00 +5°C° 0 mm 4 mps 754 mmHg 74%
10:00 +7°C° 0 mm 5 mps 754 mmHg 67%
11:00 +7°C° 0 mm 6 mps 754 mmHg 64%
12:00 +8°C° 0 mm 6 mps 753 mmHg 60%
13:00 +9°C° 0 mm 6 mps 753 mmHg 56%
14:00 +9°C° 0 mm 6 mps 753 mmHg 58%
15:00 +8°C° 0 mm 6 mps 753 mmHg 60%
16:00 +8°C° 0 mm 6 mps 753 mmHg 61%
17:00 +6°C° 0 mm 5 mps 754 mmHg 65%
18:00 +5°C° 0 mm 5 mps 754 mmHg 69%
19:00 +4°C° 0 mm 4 mps 754 mmHg 73%
20:00 +3°C° 0 mm 4 mps 754 mmHg 75%
21:00 +3°C° 0 mm 4 mps 754 mmHg 76%
22:00 +3°C° 0 mm 4 mps 754 mmHg 77%
23:00 +1°C° 0 mm 4 mps 754 mmHg 79%

16 August, Sunday

Time Temperature Precipitation Wind Pressure Humidity
00:00 +1°C° 0 mm 4 mps 754 mmHg 80%
01:00 +1°C° 0 mm 3 mps 754 mmHg 81%
02:00 +1°C° 0 mm 3 mps 753 mmHg 82%
03:00 +1°C° 0 mm 3 mps 753 mmHg 83%
04:00 +1°C° 0 mm 3 mps 753 mmHg 84%
05:00 +1°C° 0 mm 3 mps 753 mmHg 84%
06:00 +1°C° 0 mm 3 mps 753 mmHg 84%
07:00 +1°C° 0 mm 3 mps 753 mmHg 85%
08:00 +3°C° 0 mm 4 mps 752 mmHg 77%
09:00 +6°C° 0 mm 5 mps 752 mmHg 69%
10:00 +8°C° 0 mm 6 mps 752 mmHg 61%
11:00 +9°C° 0 mm 6 mps 752 mmHg 60%
12:00 +10°C° 0 mm 6 mps 752 mmHg 60%
13:00 +11°C° 0 mm 6 mps 751 mmHg 59%
14:00 +10°C° 0 mm 5 mps 751 mmHg 61%
15:00 +10°C° 0 mm 5 mps 750 mmHg 64%
16:00 +11°C° 0 mm 4 mps 750 mmHg 66%
17:00 +8°C° 0 mm 4 mps 750 mmHg 72%
18:00 +7°C° 0 mm 3 mps 750 mmHg 79%
19:00 +5°C° 0 mm 3 mps 751 mmHg 86%
20:00 +5°C° 0 mm 2 mps 750 mmHg 88%
21:00 +5°C° 0 mm 2 mps 750 mmHg 89%
22:00 +4°C° 0 mm 2 mps 750 mmHg 91%
23:00 +4°C° 0 mm 2 mps 750 mmHg 91%

17 August, Monday

Time Temperature Precipitation Wind Pressure Humidity
00:00 +4°C° 0 mm 2 mps 750 mmHg 91%
01:00 +4°C° 0 mm 1 mps 750 mmHg 90%
02:00 +4°C° 0 mm 1 mps 749 mmHg 91%
03:00 +4°C° 0 mm 1 mps 749 mmHg 92%
04:00 +4°C° 0 mm 1 mps 749 mmHg 92%
05:00 +4°C° 0 mm 1 mps 749 mmHg 92%
06:00 +4°C° 0 mm 1 mps 749 mmHg 92%
07:00 +4°C° 0 mm 1 mps 749 mmHg 92%
08:00 +7°C° 0 mm 1 mps 749 mmHg 84%
09:00 +8°C° 0 mm 2 mps 749 mmHg 75%
10:00 +10°C° 0 mm 3 mps 749 mmHg 67%
11:00 +11°C° 0 mm 3 mps 749 mmHg 65%
12:00 +12°C° 0 mm 3 mps 749 mmHg 62%
13:00 +13°C° 0 mm 3 mps 749 mmHg 60%
14:00 +12°C° 0 mm 4 mps 749 mmHg 64%
15:00 +11°C° 0 mm 4 mps 749 mmHg 67%
16:00 +11°C° 0 mm 4 mps 749 mmHg 71%
17:00 +8°C° 0 mm 4 mps 749 mmHg 77%
18:00 +7°C° 0 mm 3 mps 749 mmHg 83%
19:00 +6°C° 0 mm 2 mps 749 mmHg 89%
20:00 +6°C° 0 mm 2 mps 749 mmHg 90%
21:00 +5°C° 0 mm 2 mps 749 mmHg 90%
22:00 +5°C° 0 mm 2 mps 750 mmHg 90%
23:00 +5°C° 0.1 mm 2 mps 750 mmHg 89%

18 August, Tuesday

Time Temperature Precipitation Wind Pressure Humidity
00:00 +4°C° 0.1 mm 3 mps 750 mmHg 88%
01:00 +4°C° 0.1 mm 3 mps 750 mmHg 88%
02:00 +4°C° 0 mm 2 mps 751 mmHg 89%
03:00 +3°C° 0 mm 2 mps 751 mmHg 90%
04:00 +3°C° 0 mm 1 mps 751 mmHg 91%
05:00 +3°C° 0 mm 1 mps 752 mmHg 91%
06:00 +3°C° 0 mm 1 mps 753 mmHg 91%
07:00 +3°C° 0 mm 1 mps 753 mmHg 91%
08:00 +5°C° 0 mm 1 mps 754 mmHg 81%
09:00 +7°C° 0 mm 1 mps 754 mmHg 72%
10:00 +8°C° 0 mm 2 mps 755 mmHg 63%
11:00 +8°C° 0.1 mm 2 mps 755 mmHg 60%
12:00 +9°C° 0.1 mm 3 mps 755 mmHg 57%
13:00 +9°C° 0.1 mm 3 mps 755 mmHg 54%
14:00 +9°C° 0.1 mm 3 mps 755 mmHg 59%
15:00 +8°C° 0.1 mm 3 mps 755 mmHg 64%
16:00 +8°C° 0.1 mm 3 mps 755 mmHg 69%
17:00 +5°C° 0 mm 3 mps 756 mmHg 75%
18:00 +5°C° 0 mm 2 mps 756 mmHg 81%
19:00 +3°C° 0 mm 2 mps 757 mmHg 87%
20:00 +3°C° 0 mm 2 mps 757 mmHg 87%
21:00 +3°C° 0 mm 2 mps 758 mmHg 88%
22:00 +1°C° 0 mm 3 mps 758 mmHg 88%
23:00 +2°C° 0 mm 2 mps 758 mmHg 89%
Show more